GPS BIIRM-6 (PRN 07)

Last updated on July 6, 2021, 3:39 p.m. UTC

1 32711U 08012A   21186.28902364  .00000080  00000-0  00000-0 0  9995
2 32711  54.5210 222.1077 0153006 227.6120 131.1586  2.00554448 97495
UTC
Height (km)
Latitude
Longitude
Inclination
Orbital Period
UTC large
Height (km)
Speed (km/s)
/
Latitude / Longitude
Inclination (degrees)
Orbital Period (minutes)
Azimuth
Elevation
Range (km)
Doppler Factor
iOS Compass Heading
iOS Angle